Regional Weather Roundup
Issued by NWS

Home | Current Version | Previous Version | Text Only | Print | Product List | Glossary Off
Versions: 1 2 3 4 5 6 7 8 9 10 11 12 13 14 15 16 17 18 19 20 21 22 23 24 25 26 27 28 29 30 31 32 33 34 35 36 37 38 39 40 41 42 43 44 45 46 47 48 49 50

801
ASUS43 KBIS 231002
RWRND

NORTH DAKOTA REGIONAL WEATHER ROUNDUP
NATIONAL WEATHER SERVICE BISMARCK ND
500 AM CDT THU MAR 23 2017

NOTE: "FAIR" INDICATES FEW OR NO CLOUDS BELOW 12,000 FEET WITH NO
SIGNIFICANT WEATHER AND/OR OBSTRUCTIONS TO VISIBILITY.


NDZ001>003-009>011-017-231100-
NORTHWEST NORTH DAKOTA

CITY           SKY/WX    TMP DP  RH WIND       PRES   REMARKS
WILLISTON      FAIR      31  29  92 CALM      29.75F
MINOT          FAIR      34  28  79 S3        29.75F
MINOT AFB      CLOUDY    29  27  92 S7        29.74F
$$

NDZ018>021-031>035-040>046-231100-
SOUTHWEST NORTH DAKOTA

CITY           SKY/WX    TMP DP  RH WIND       PRES   REMARKS
BISMARCK       FAIR      32  28  85 NE9       29.78F
DICKINSON      CLOUDY    34  30  85 W6        29.74S
GARRISON         N/A     31  28  89 CALM      29.76F
HETTINGER ARPT LGT RAIN  35  32  88 NW8       29.78R
$$

NDZ004>008-012>016-024-026-027-054-231100-
NORTHEAST NORTH DAKOTA

CITY           SKY/WX    TMP DP  RH WIND       PRES   REMARKS
GRAND FORKS    CLOUDY    33  21  61 S14       29.90F
GRND FRKS AFB  CLOUDY    32  25  74 S15       29.90F
DEVILS LAKE    FAIR      30  26  85 S10       29.83F
$$

NDZ022-023-025-028>030-036>039-047>053-231100-
SOUTHEAST NORTH DAKOTA

CITY           SKY/WX    TMP DP  RH WIND       PRES   REMARKS
FARGO          CLEAR     36  25  64 S23G32    29.92F
JAMESTOWN      FAIR      28  25  88 S7        29.83F
$$





USA.gov is the U.S. government's official web portal to all federal, state and local government web resources and services.